UpdateThe Delta-2 rocket body re-entered the Earths atmosphere on the 30th July, 2011 @ 11:31 GMT ± 1 minute.
Inclination: 103.54°Revolution Number: 783Predicted Location: 76°S, 239°E
UpdateThe Delta-2 rocket body is predicted to re-enter the Earths atmosphere on the 30th July, 2011 @ 11:04 GMT ± 1 hour.
DELTA 2 RB 1 37674U 11024B 11211.25272947 .14151007 66316-5 23227-3 0 1424 2 37674 103.5294 262.5027 0028532 145.0435 215.3397 16.45231909 7804
Period: 88.74 minutesInclination: 103.54°Apogee: 267 kmPerigee: 157 km Revolution Number: 783Predicted Location: 34.3°N, 339.4°E
UpdateThe Delta-2 rocket body is predicted to re-enter the Earths atmosphere on the 30th July, 2011 @ 12:57 GMT ± 15 hours.
DELTA 2 RB 1 37674U 11024B 11210.82571289 .05810642 65785-5 27242-3 0 1390 2 37674 103.5303 261.5893 0048693 148.5373 212.1082 16.35759604 7738
Period: 88.74 minutesInclination: 103.54°Apogee: 267 kmPerigee: 157 km Revolution Number: 784Predicted Location: 63.8°S, 272.8°E
UpdateThe Delta-2 rocket body is predicted to re-enter the Earths atmosphere on the 30th July, 2011 @ 09:56 GMT ± 24 hours.
DELTA 2 RB 1 37674U 11024B 11210.39696597 .04233991 65183-5 31835-3 0 1370 2 37674 103.5369 260.6886 0063214 147.0427 214.1862 16.30548742 7666
Period: 88.91 minutesInclination: 103.54°Apogee: 282 kmPerigee: 159 km Revolution Number: 783Predicted Location: 46.3°S, 332.6°E
DELTA 2 RB 1 37674U 11024B 11209.59750773 .03057463 00000-0 69021-3 0 1329 2 37674 103.5358 259.0016 0064953 151.4357 209.1819 16.24012641 7532
UpdateThe Delta-2 rocket body is predicted to re-enter the Earths atmosphere on the 30th July, 2011 @ 05:30 GMT ± 48 hours.
DELTA 2 RB 1 37674U 11024B 11207.86701993 .02285615 63061-5 61416-3 0 1251 2 37674 103.5402 255.4309 0109907 155.0523 205.6316 16.14182048 7251
Period: 89.61 minutesInclination: 103.54°Apogee: 344 kmPerigee: 166 km Revolution Number: 780Predicted Location: 43.6°S, 40.3°E
UpdateThe Delta-2 rocket body is predicted to re-enter the Earths atmosphere on the 24th July, 2011 @ --:-- GMT ± -- hours.
DELTA 2 RB 1 37674U 11024B 11204.75497796 .01691804 61488-5 69140-3 0 1128 2 37674 103.5453 249.1021 0151919 163.9669 196.6570 16.01660445 6750
Period: 89.98 minutesInclination: 103.55°Apogee: 378 kmPerigee: 169 km Revolution Number: -Predicted Location: -
DELTA 2 RB 1 37674U 11024B 11203.69182200 .01538607 61095-5 68723-3 0 1076 2 37674 103.5488 246.9646 0164715 167.0950 193.4807 15.98112182 6586
Period: 90.34 minutesInclination: 103.55°Apogee: 412 kmPerigee: 170 km Revolution Number: -Predicted Location: -
DELTA 2 RB 1 37674U 11024B 11194.92596702 +.00869751 +59089-5 +58955-3 0 00753 2 37674 103.5609 229.6475 0241413 192.3806 167.1438 15.77405386005193
Period: 91.23 minutesInclination: 103.56°Apogee: 495 kmPerigee: 179 km Revolution Number: -Predicted Location: -
UpdateThe Delta-2 rocket body is predicted to re-enter the Earths atmosphere on the 25th July, 2011 @ --:-- GMT ± -- hours.
DELTA 2 RB1 37674U 11024B 11190.22055973 .00613855 58585-5 48034-3 0 5712 37674 103.5632 220.5174 0268421 205.8094 152.9547 15.69986592 4457
Period: 91.83 minutesInclination: 103.56°Apogee: 550 kmPerigee: 179 km Revolution Number: -Predicted Location: -